Location: Ferintosh
(52.7647°N, 112.9692°W)
Time: 21:36:43
(UTC+00:00)

A-11 Canister half - Pass Details

Date: 26 May 2024
Orbit: 1524 x 1683 km, 47.3° (Epoch: 19 June)

Event Time Altitude Azimuth Distance (km) Brightness Sun altitude
Rises 01:31:51 0° 173° (S) 4,663 11.3 16.3°
Reaches altitude 10° 01:37:16 10° 148° (SSE) 3,699 10.6 15.5°
Maximum altitude 01:40:49 13° 125° (SE) 3,499 10.4 15.0°
Drops below altitude 10° 01:44:23 10° 102° (ESE) 3,737 10.5 14.5°
Sets 01:49:53 0° 77° (ENE) 4,758 11.1 13.7°
